Apalachicola Bay - St. George Island Weather Center

Moon Phase Calendar



Online Cameras

 


      

Current Conditions in Apalachicola
5/14/2021 9:24:46 AM

70°F
Feels Like 69
Clear
Humidity
64%
Pressure
30.21"
Wind
8 mph (NE)
Dew Point
57°F
UV Index
1/10 (Low)
Visibility
6 mi

Hourly Forecast

Date & Time Fri, May 14
9:00 AM
Fri, May 14
10:00 AM
Fri, May 14
11:00 AM
Fri, May 14
12:00 PM
Fri, May 14
1:00 PM
Fri, May 14
2:00 PM
Fri, May 14
3:00 PM
Fri, May 14
4:00 PM
Fri, May 14
5:00 PM
Fri, May 14
6:00 PM
Fri, May 14
7:00 PM
Fri, May 14
8:00 PM
Fri, May 14
9:00 PM
Fri, May 14
10:00 PM
Fri, May 14
11:00 PM
Sat, May 15
12:00 AM
Sat, May 15
1:00 AM
Sat, May 15
2:00 AM
Sat, May 15
3:00 AM
Sat, May 15
4:00 AM
Sat, May 15
5:00 AM
Sat, May 15
6:00 AM
Sat, May 15
7:00 AM
Sat, May 15
8:00 AM
Sat, May 15
9:00 AM
Sat, May 15
10:00 AM
Sat, May 15
11:00 AM
Sat, May 15
12:00 PM
Sat, May 15
1:00 PM
Sat, May 15
2:00 PM
Sat, May 15
3:00 PM
Sat, May 15
4:00 PM
Sat, May 15
5:00 PM
Sat, May 15
6:00 PM
Sat, May 15
7:00 PM
Sat, May 15
8:00 PM
Sat, May 15
9:00 PM
Sat, May 15
10:00 PM
Sat, May 15
11:00 PM
Sun, May 16
12:00 AM
Sun, May 16
1:00 AM
Sun, May 16
2:00 AM
Sun, May 16
3:00 AM
Sun, May 16
4:00 AM
Sun, May 16
5:00 AM
Sun, May 16
6:00 AM
Sun, May 16
7:00 AM
Sun, May 16
8:00 AM
Condition
Clear

Clear

Clear

Clear

Clear

Clear

Clear

Clear

Clear

Clear

Clear

Clear

Clear

Clear

Clear

Clear

Clear

Clear

Clear

Clear

Clear

Clear

Clear

Clear

Clear

Clear

Clear

Clear

Clear

Clear

Clear

Clear

Clear

Clear

Clear

Clear

Clear

Clear

Clouds

Clouds

Clouds

Clouds

Clouds

Clouds

Clouds

Clouds

Clouds

Clouds
Temperature 70°F69°F70°F72°F74°F76°F77°F77°F77°F77°F74°F71°F69°F68°F66°F65°F65°F66°F66°F66°F66°F66°F65°F67°F70°F72°F73°F74°F76°F76°F77°F77°F77°F77°F76°F73°F71°F69°F68°F67°F71°F71°F71°F71°F71°F70°F70°F71°F
Feels Like 69°F69°F70°F71°F73°F76°F76°F77°F76°F76°F74°F70°F68°F67°F65°F64°F64°F65°F66°F66°F65°F65°F64°F66°F69°F71°F73°F73°F75°F76°F76°F76°F76°F76°F75°F72°F70°F68°F67°F66°F71°F71°F71°F71°F70°F70°F70°F71°F
Cloudiness 1%1%1%1%0%0%0%0%0%0%0%2%2%2%1%2%2%2%0%0%0%0%0%0%0%0%0%0%0%0%0%0%0%0%0%0%5%5%16%28%25%23%100%94%96%97%98%98%
Visibility 6 mi6 mi6 mi6 mi6 mi6 mi6 mi6 mi6 mi6 mi6 mi6 mi6 mi6 mi6 mi6 mi6 mi6 mi6 mi6 mi6 mi6 mi6 mi6 mi6 mi6 mi6 mi6 mi6 mi6 mi6 mi6 mi6 mi6 mi6 mi6 mi6 mi6 mi6 mi6 mi6 mi6 mi6 mi6 mi6 mi6 mi6 mi6 mi
Precipitation 0%0%0%0%0%0%0%0%0%0%0%0%0%0%0%0%0%0%0%0%0%0%0%0%0%0%0%0%0%0%0%0%0%0%0%0%0%0%0%0%0%0%0%0%0%0%0%0%
Humidity 64%62%58%53%46%40%39%38%38%40%46%53%56%59%59%59%62%67%71%71%70%68%66%62%56%50%47%44%39%37%36%35%36%38%40%47%46%53%57%58%62%61%64%66%67%68%70%68%
Dew Point 57°F56°F55°F54°F52°F50°F49°F50°F50°F50°F52°F54°F53°F53°F51°F51°F52°F55°F57°F56°F56°F55°F54°F54°F54°F53°F52°F50°F49°F48°F48°F48°F48°F49°F50°F52°F50°F51°F52°F52°F58°F57°F58°F59°F59°F60°F60°F60°F
Pressure 30.21"30.21"30.21"30.18"30.18"30.18"30.15"30.15"30.12"30.12"30.12"30.12"30.15"30.15"30.18"30.18"30.18"30.18"30.15"30.15"30.15"30.18"30.21"30.24"30.24"30.24"30.24"30.24"30.24"30.21"30.18"30.15"30.15"30.12"30.12"30.15"30.15"30.18"30.18"30.18"30.15"30.15"30.12"30.12"30.15"30.15"30.18"30.21"
Wind Speed 10.6 mph10.7 mph10.7 mph11.2 mph9.7 mph9.1 mph9.6 mph8.5 mph6.5 mph4.5 mph6.2 mph5.2 mph4.7 mph6.6 mph8.4 mph9.8 mph11.6 mph12.2 mph13.2 mph12.7 mph12.4 mph12.5 mph12 mph12 mph13.6 mph13.7 mph14.3 mph14.5 mph12.8 mph12.9 mph13.5 mph12.8 mph11.3 mph10 mph7.3 mph4.1 mph4.6 mph8.8 mph9.4 mph10.4 mph17 mph18.8 mph17.2 mph14.4 mph13.7 mph12.8 mph12 mph11.8 mph
Wind
Direction
44°
NE
51°
NE
60°
ENE
71°
ENE
85°
E
98°
E
108°
ESE
117°
ESE
131°
SE
184°
S
229°
SW
256°
WSW
301°
WNW
328°
NNW
359°
N
41°
NE
56°
NE
69°
ENE
73°
ENE
76°
ENE
78°
ENE
77°
ENE
74°
ENE
75°
ENE
81°
E
82°
E
84°
E
86°
E
94°
E
105°
ESE
114°
ESE
119°
ESE
123°
ESE
125°
SE
123°
ESE
106°
ESE

N
348°
NNW
356°
N
36°
NE
111°
ESE
108°
ESE
113°
ESE
111°
ESE
113°
ESE
111°
ESE
103°
ESE
103°
ESE

Daily Forecast

Date High Low Precip. Humidity
Today
May 14

Clear
77 °F
61 °F
0%
46%
Saturday
May 15

Clear
77 °F
65 °F
0%
39%
Sunday
May 16

Clouds
77 °F
67 °F
0%
53%
Monday
May 17

Clouds
78 °F
71 °F
0%
55%
Tuesday
May 18

Clouds
80 °F
72 °F
4%
64%
Wednesday
May 19

Clouds
81 °F
74 °F
22%
66%
Thursday
May 20

Rain
81 °F
74 °F
21%
63%
Friday
May 21

Rain
82 °F
74 °F
21%
64%
Saturday
May 22

Rain
75 °F
71 °F
86%
93%
Sunday
May 23

Rain
78 °F
73 °F
100%
75%
Monday
May 24

Rain
81 °F
74 °F
58%
73%
Tuesday
May 25

Rain
82 °F
75 °F
46%
72%
Wednesday
May 26

Rain
82 °F
75 °F
64%
67%
Thursday
May 27

Rain
83 °F
74 °F
25%
62%
Friday
May 28

Clear
83 °F
73 °F
13%
57%
Saturday
May 29

Clouds
86 °F
73 °F
21%
52%

Temperature 8-14 Day Outlook



Precipitation 8-14 Day Outlook




Quick Links
Apalachicola Bay - St. George Island News
Apalachicola Bay - St. George Island Photos
Apalachicola Bay - St. George Island Videos




About Us
Contact Us
Site Map
Search Site
Advertise With Us
   
Apalachicola.USGulf.info
THE APALACHICOLA BAY - ST. GEORGE ISLAND WEBSITE

Copyright 2021, Coastal Town
Privacy    |    Legal